Regional Weather Roundup
Issued by NWS

Home | Current Version | Previous Version | Text Only | Print | Product List | Glossary Off
Versions: 1 2 3 4 5 6 7 8 9 10 11 12 13 14 15 16 17 18 19 20 21 22 23 24 25 26 27 28 29 30 31 32 33 34 35 36 37 38 39 40 41 42 43 44 45 46 47 48 49 50

000
ASUS43 KDTX 282110
RWRMI
MICHIGAN HOURLY REGIONAL WEATHER ROUNDUP
NATIONAL WEATHER SERVICE DETROIT/PONTIAC MI
500 PM EDT SUN AUG 28 2016

NOTE: "FAIR" INDICATES FEW OR NO CLOUDS BELOW 12,000 FEET WITH NO
SIGNIFICANT WEATHER AND/OR OBSTRUCTION TO VISIBILITY.

MIZ047>049-052>055-059>063-066>070-074>076-081>083-282200-
SOUTHEAST LOWER MICHIGAN

CITY           SKY/WX    TMP DP  RH WIND       PRES   REMARKS
ADRIAN           N/A     78  72  81 CALM      30.18F
ALMA           SUNNY     82  68  62 W3        30.20S
ANN ARBOR      MOSUNNY   82  73  74 S5        30.17F
BAD AXE        PTSUNNY   77  66  69 NW5       30.20R
CARO           SUNNY     77  68  73 NW8       30.20R
DETROIT CITY   CLOUDY    82  71  69 S8        30.16F
DETROIT        PTSUNNY   83  75  77 S8        30.17F HX  90
FLINT          SUNNY     85  67  54 NW8       30.19R
GROSSE ILE     CLOUDY    78  73  87 CALM      30.16F
HILLSDALE      LGT RAIN  79  73  80 CALM      30.19F
HOWELL         PTSUNNY   83  69  61 N8        30.19S

CITY           SKY/WX    TMP DP  RH WIND       PRES   REMARKS
JACKSON        PTSUNNY   84  70  62 NW6       30.18F
LAMBERTVILLE   CLOUDY    75  70  84 SE3       30.18F
LANSING        SUNNY     83  67  58 N8        30.20S
LAPEER         FAIR      83  67  58 N7        30.19S
MASON          MOSUNNY   84  70  61 NW9       30.19S
MONROE         CLOUDY    75  73  91 S9        30.16F
MT. CLEMENS    PTSUNNY   83  74  75 S10       30.15F HX  90
PONTIAC        MOSUNNY   84  68  58 VRB5      30.17F
PORT HURON     PTSUNNY   82  68  61 W3        30.16F
TRI CITIES     SUNNY     80  65  59 W3        30.20R
MIDLAND        PTSUNNY   80  65  62 CALM      30.18R
TROY           PTSUNNY   87  66  50 CALM      30.18F
SAGINAW HB     SUNNY     81  64  57 CALM      30.19R
$$
MIZ043>046-050>051-056>058-064>065-071>073-077>080-282200-
SOUTHWEST LOWER MICHIGAN

CITY           SKY/WX    TMP DP  RH WIND       PRES   REMARKS
BATTLE CREEK   MOSUNNY   82  71  69 NW7       30.20F
BENTON HARBOR  MOSUNNY   78  67  68 N6        30.19S
BIG RAPIDS     SUNNY     82  63  52 CALM      30.20R
COLDWATER      LGT RAIN  79  76  90 W3        30.20S
FREMONT        FAIR      80  58  46 CALM      30.20R
HOLLAND        SUNNY     80  66  62 W7        30.21R
GRAND RAPIDS   MOSUNNY   84  64  50 NW6       30.20R
IONIA          FAIR      82  64  55 CALM      30.19S
KALAMAZOO      MOSUNNY   85  66  53 W7        30.19S
LUDINGTON      CLOUDY    74  65  74 NW5       30.20R
MARSHALL       PTSUNNY   88  70  55 W7        30.19S HX  92
MOUNT PLEASANT SUNNY     82  65  57 S3        30.19R
MUSKEGON       MOSUNNY   78  66  66 W8        30.21R
SOUTH HAVEN    SUNNY     82  69  65 NW6       30.20S
$$
MIZ016>042-282200-
NORTHERN LOWER MICHIGAN

CITY           SKY/WX    TMP DP  RH WIND       PRES   REMARKS
ALPENA         MOSUNNY   79  62  56 NE10      30.17R
BEAVER ISLAND  SUNNY     74  63  68 SW5       30.19S
BELLAIRE       MOSUNNY   76  61  59 W3        30.20S
CADILLAC       SUNNY     80  58  46 W7        30.20S
CHARLEVOIX     SUNNY     74  62  66 W6        30.22S
FRANKFORT      MOSUNNY   75  63  65 NW5       30.19S
GAYLORD        PTSUNNY   75  59  57 W7        30.21R
GRAYLING       SUNNY     79  60  52 NW8       30.21R
HARBOR SPRINGS MOSUNNY   73  65  75 W8        30.19S
HOUGHTON LAKE  MOSUNNY   79  59  50 W7        30.21R
MANISTEE       SUNNY     75  65  70 NW6       30.20R
OSCODA         MOSUNNY   74  65  73 SE8       30.17S
PELLSTON       SUNNY     77  59  53 NW10      30.18F
ROGERS CITY    SUNNY     74  62  68 N6        30.18S
TRAVERSE CITY  MOSUNNY   78  63  59 NE9       30.18S
$$
MIZ007>008-015-282200-
EASTERN UPPER MICHIGAN

CITY           SKY/WX    TMP DP  RH WIND       PRES   REMARKS
KINROSS        MOSUNNY   71  63  75 N13       30.18S
MACKINAC ISLAN SUNNY     73  63  71 W10       30.17S
NEWBERRY         N/A     72  59  63 NW5       30.18F
S. S. MARIE    SUNNY     73  61  65 NW13      30.17S
$$
MIZ004>006-011>014-085-282200-
CENTRAL UPPER MICHIGAN

CITY           SKY/WX    TMP DP  RH WIND       PRES   REMARKS
MANISTIQUE     MOSUNNY   74  65  74 S5        30.18S
ESCANABA       MOSUNNY   75  63  66 S12       30.18S
MENOMINEE      MOSUNNY  N/A N/A N/A SE6       30.18F
SAWYER-GWINN   SUNNY     72  59  64 NE12      30.21S
$$
MIZ001>003-009>011-084-282200-
WESTERN UPPER MICHIGAN

CITY           SKY/WX    TMP DP  RH WIND       PRES   REMARKS
IRON MOUNTAIN  MOSUNNY   79  57  46 CALM      30.18S
HOUGHTON       MOSUNNY   74  58  57 SE5       30.19S
IRONWOOD       SUNNY     76  60  57 VRB5      30.19S
$$

ABBREVIATIONS USED IN REMARKS
   TC - TEMPERATURE IN CELSIUS
  WCI - WIND CHILL INDEX
   HX - HEAT INDEX
  VSB - VISIBILITY




USA.gov is the U.S. government's official web portal to all federal, state and local government web resources and services.